| time (UTC) | temp F | wind direction | speed knots | gust knots | rain 1hr in | rain 24hr in | rain mn in | humidity % | barometer mb |
| 20260503173003 | 61 | 194 | 5.2 | 9.6 | 0.01 | 0.20 | 0.07 | 84 | 1009.6 |
| 20260503172217 | 61 | 186 | 4.3 | 8.7 | 0.00 | 0.19 | 0.06 | 84 | 1009.5 |
| 20260503171003 | 61 | 188 | 6.1 | 9.6 | 0.00 | 0.19 | 0.06 | 84 | 1009.6 |
| 20260503151003 | 61 | 215 | 6.1 | 9.6 | 0.01 | 0.19 | 0.06 | 82 | 1009.8 |
| 20260503131003 | 64 | 249 | 7.8 | 14.8 | 0.00 | 0.15 | 0.02 | 78 | 1009.7 |
| 20260503130216 | 65 | 244 | 7.0 | 12.2 | 0.00 | 0.15 | 0.02 | 77 | 1009.7 |
| 20260503120219 | 68 | 246 | 6.1 | 10.4 | 0.00 | 0.15 | 0.02 | 71 | 1009.7 |
| 20260503090217 | 68 | 176 | 6.1 | 10.4 | 0.00 | 0.15 | 0.02 | 76 | 1010.0 |
| 20260502205003 | 62 | 149 | 4.3 | 10.4 | 0.00 | 0.00 | 0.00 | 74 | 1014.4 |
| 20260502204003 | 60 | 24 | 0.9 | 3.5 | 0.00 | 0.00 | 0.00 | 75 | 1014.0 |
| 20260502203003 | 62 | 16 | 0.9 | 2.6 | 0.00 | 0.00 | 0.00 | 73 | 1013.9 |
| 20260502202003 | 62 | 14 | 1.7 | 2.6 | 0.00 | 0.00 | 0.00 | 73 | 1013.6 |
| 20260502201216 | 61 | 13 | 0.9 | 2.6 | 0.00 | 0.00 | 0.00 | 73 | 1013.8 |
| 20260502200003 | 62 | 14 | 0.9 | 2.6 | 0.00 | 0.00 | 0.00 | 73 | 1014.0 |
| 20260502195003 | 63 | 13 | 0.9 | 2.6 | 0.00 | 0.00 | 0.00 | 73 | 1014.0 |
| 20260502194003 | 64 | 12 | 0.9 | 2.6 | 0.00 | 0.00 | 0.00 | 73 | 1014.0 |
| 20260502193003 | 63 | 12 | 0.0 | 1.7 | 0.00 | 0.00 | 0.00 | 73 | 1014.0 |
| 20260502192003 | 64 | 12 | 0.9 | 2.6 | 0.00 | 0.00 | 0.00 | 72 | 1013.9 |
| 20260502191216 | 64 | 12 | 0.9 | 2.6 | 0.00 | 0.00 | 0.00 | 73 | 1013.8 |
| 20260502190004 | 64 | 11 | 0.9 | 2.6 | 0.00 | 0.00 | 0.00 | 72 | 1013.7 |
| 20260502185215 | 65 | 11 | 1.7 | 2.6 | 0.00 | 0.00 | 0.00 | 71 | 1013.8 |
| 20260502184003 | 65 | 12 | 1.7 | 4.3 | 0.00 | 0.00 | 0.00 | 71 | 1013.8 |
| 20260502183219 | 66 | 14 | 1.7 | 4.3 | 0.00 | 0.00 | 0.00 | 71 | 1013.8 |
| 20260502182003 | 66 | 6 | 1.7 | 4.3 | 0.00 | 0.00 | 0.00 | 71 | 1013.8 |
| 20260502181003 | 67 | 341 | 2.6 | 7.0 | 0.00 | 0.00 | 0.00 | 70 | 1013.8 |